Regional Weather Roundup
Issued by NWS Northern Indiana

Home | Current Version | Previous Version | Graphics & Text | Print | Product List | Glossary Off
Versions: 1 2 3 4 5 6 7 8 9 10 11 12 13 14 15 16 17 18 19 20 21 22 23 24 25 26 27 28 29 30 31 32 33 34 35 36 37 38 39 40 41 42 43 44 45 46 47 48 49 50

000
ASUS43 KIWX 021010
RWRIWX

KIWX WEATHER ROUNDUP
NATIONAL WEATHER SERVICE NORTHERN INDIANA
600 AM EDT SUN AUG 02 2015

NOTE: "FAIR" INDICATES FEW OR NO CLOUDS BELOW 12,000 FEET WITH NO
SIGNIFICANT WEATHER AND/OR OBSTRUCTIONS TO VISIBILITY.

* THESE STATIONS ARE NOT UNDER NWS QUALITY CONTROL. THEY ALSO MAY NOT
  REPORT WEATHER SUCH AS PRECIPITATION OR FOG.

INZ001>027-021100-
NORTHERN INDIANA

CITY           SKY/WX    TMP DP  RH WIND       PRES   REMARKS
GARY*          PTCLDY    72  66  83 SW7       29.89S
VALPARAISO     CLEAR     66  62  87 SW6       29.91S
MICHIGAN CITY* CLEAR     66  63  88 SW5       29.90R
LAPORTE*       CLEAR     66  66 100 CALM      29.91S
KNOX*          CLEAR     64  63  94 SW5       29.90S
SOUTH BEND     CLEAR     67  63  87 SW5       29.90F
GOSHEN         CLEAR     65  62  90 SW6       29.91S
MONTICELLO*    CLEAR     65  64  96 SW7       29.92S
LOGANSPORT*    CLEAR     63  57  82 SW6       29.94R
ROCHESTER*     CLEAR     68  63  83 SW3       29.93S
WARSAW*        CLEAR     66  61  82 SW6       29.92S
ANGOLA*        CLEAR     70  63  78 W6        29.91S
FORT WAYNE     PTCLDY    64  61  90 SW7       29.93S
HUNTINGTON*    CLEAR     66  61  84 SW3       29.93R
PERU/GRISSOM   CLEAR     64  60  89 SW6       29.92F
MARION*        CLEAR     61  58  89 SW6       29.95S

$$
INZ028>050-021100-
CENTRAL INDIANA

CITY           SKY/WX    TMP DP  RH WIND       PRES   REMARKS
LAFAYETTE      CLEAR     63  61  93 SW6       29.92F
KOKOMO*        CLEAR     66  57  72 W8        29.94S
MUNCIE*        CLEAR     65  58  78 SW8       29.95F
INDIANAPOLIS   PTCLDY    64  58  80 SW6       29.95S

$$
MIZ043>046-050>051-056>058-064>065-071>073-077>080-021100-
SOUTHWEST LOWER MICHIGAN

CITY           SKY/WX    TMP DP  RH WIND       PRES   REMARKS
BATTLE CREEK   CLEAR     65  61  87 SW6       29.88F
BENTON HARBOR  PTCLDY    72  66  81 SW9       29.87S
COLDWATER*     CLEAR     64  61  91 SW5       29.90S
HILLSDALE*     CLEAR     66  64  93 W3        29.91S
HOLLAND        CLEAR     71  67  87 SW7       29.86S
GRAND RAPIDS   MOCLDY    66  61  84 SW7       29.86S
KALAMAZOO      CLEAR     65  61  87 SW6       29.89S
STURGIS*       CLEAR     63  61  94 SW3       29.90S
THREE RIVERS*  FAIR      63  61  93 S3        29.89F

$$
OHZ001>008-015>018-024>025-021100-
NORTHWEST OHIO

CITY           SKY/WX    TMP DP  RH WIND       PRES   REMARKS
WAUSEON*       FAIR      63  61  94 CALM      29.91S
DEFIANCE       CLEAR     64  60  87 S5        29.92R
FINDLAY        CLEAR     67  59  75 SW5       29.91S
TOLEDO EXPRESS CLEAR     65  60  84 SW6       29.90R
TOLEDO METCALF CLEAR     65  59  81 SW6       29.91R
LIMA           CLEAR     66  58  75 SW7       29.94S

$$
AND FOR LAKE MICHIGAN COASTAL AND OPEN LAKE BUOY OBSERVATIONS

STATION/POSITION TEMP    WIND        PRES    VSBY  WAVE
                 AIR SEA DIR/SP/G                  HT/PER
                 (F)     (DEG/KT/KT) (MB)    (MI)  (FT/S)
CALUMET HARBOR    72     220/  4/  7   N/A
MICHIGAN CITY     71     190/ 12/ 14   N/A
BURNS HARBOR      72     210/  9/ 14 1012.5F
SAINT JOSEPH      74     190/ 14/ 18 1011.9F
4 MI NW BRIDGMAN  73 73  250/ 14/ 17   N/A           3/ 3
MICHIGAN CITY     73 73  230/ 12/ 16   N/A           2/ 3

$$
&&


USA.gov is the U.S. government's official web portal to all federal, state and local government web resources and services.